Flag for Norway Weather past 2 weeks in Kristiansand, Norway

Now
48 °F

Passing clouds.


Feels Like: 44 °F
Forecast: 44 / 49 °F
Wind: 10 mph from Southwest

Location: Kristiansand / Kjevik

Current Time: May 28, 2015 at 12:30:34 AM

Latest Report: May 27, 2015 at 11:50 PM


Visibility: N/A

Pressure: 29.86 "Hg

Humidity: 76%

Dew point: 41 °F

Location of KristiansandLocation

Historic Weather in Kristiansand — Graph

°F

Kristiansand temperature yesterday

Maximum temperature yesterday: 61 °F (at 2:20 PM)
Minimum temperature yesterday: 46 °F (at 3:50 AM)
Average temperature yesterday: 54 °F

Past Weeks' High & Low Weather Summary

 TemperatureHumidityPressure
High63 °F (May 13, 2:50 PM)100% (May 14, 5:20 AM)30.09 "Hg (May 14, 5:20 AM)
Low36 °F (May 18, 5:50 AM)25% (May 23, 2:50 PM)29.33 "Hg (May 19, 3:20 AM)
Average49 °F71%29.84 "Hg
* Reported May 12 10:20 PM — May 27 10:50 PM, Kristiansand, Weather by CustomWeather, © 2015

Note: Actual official high and low records may vary slightly from our data, if they occured in-between our weather recording intervals... More about our weather records

Advertising

Kristiansand weather history for previous 24 hours

 ConditionsComfort  
Time TempWeatherWind HumidityBarometerVisibility
10:50 PM
Wed, May 27
48 °FSunny.5 mph76%29.89 "Hg10 mi
10:20 PM50 °FPassing clouds.5 mph71%29.89 "HgN/A
9:50 PM52 °FSunny.8 mph67%29.89 "Hg10 mi
9:20 PM54 °FSunny.9 mph58%29.89 "Hg10 mi
8:50 PM54 °FSunny.8 mph58%29.89 "Hg10 mi
8:20 PM55 °FPassing clouds.10 mph55%29.92 "HgN/A
7:50 PM55 °FPassing clouds.10 mph55%29.92 "HgN/A
7:20 PM57 °FPassing clouds.9 mph51%29.92 "HgN/A
6:50 PM59 °FPassing clouds.10 mph45%29.92 "HgN/A
6:20 PM59 °FPassing clouds.10 mph48%29.92 "HgN/A
5:50 PM59 °FPassing clouds.9 mph45%29.92 "HgN/A
5:20 PM61 °FPassing clouds.9 mph42%29.92 "HgN/A
4:50 PM61 °FSunny.12 mph39%29.92 "Hg10 mi
4:20 PM59 °FPassing clouds.13 mph42%29.92 "HgN/A
3:50 PM59 °FPassing clouds.14 mph48%29.92 "HgN/A
3:20 PM61 °FPassing clouds.14 mph39%29.92 "HgN/A
2:50 PM59 °FPassing clouds.13 mph39%29.92 "HgN/A
2:20 PM61 °FPassing clouds.10 mph39%29.92 "HgN/A
1:50 PM59 °FScattered clouds.12 mph39%29.95 "HgN/A
1:20 PM59 °FScattered clouds.10 mph42%29.95 "HgN/A
12:50 PM57 °FPassing clouds.10 mph44%29.95 "HgN/A
12:20 PM57 °FPassing clouds.10 mph44%29.95 "HgN/A
11:50 AM57 °FPassing clouds.10 mph44%29.95 "HgN/A
11:20 AM57 °FPassing clouds.7 mph51%29.95 "HgN/A
10:50 AM55 °FPassing clouds.8 mph51%29.95 "HgN/A
10:20 AM54 °FPassing clouds.13 mph51%29.95 "HgN/A
9:50 AM54 °FPassing clouds.12 mph54%29.95 "HgN/A
9:20 AM52 °FPassing clouds.12 mph54%29.95 "HgN/A
8:50 AM52 °FSunny.9 mph54%29.95 "Hg10 mi
8:20 AM50 °FPassing clouds.9 mph62%29.95 "HgN/A
7:50 AM50 °FPassing clouds.9 mph62%29.95 "HgN/A
7:20 AM50 °FPassing clouds.8 mph62%29.95 "HgN/A
6:50 AM48 °FPassing clouds.9 mph62%29.95 "HgN/A
6:20 AM48 °FPassing clouds.10 mph62%29.92 "HgN/A
5:20 AM46 °FPassing clouds.6 mph66%29.92 "HgN/A
4:50 AM46 °FPassing clouds.3 mph66%29.92 "HgN/A
4:20 AM46 °FPassing clouds.7 mph71%29.92 "HgN/A
3:50 AM46 °FCool.8 mph71%29.92 "HgN/A
3:20 AM48 °FPassing clouds.10 mph66%29.92 "HgN/A
2:50 AM48 °FPartly cloudy.12 mph66%29.92 "HgN/A
2:20 AM48 °FPassing clouds.12 mph66%29.92 "HgN/A
1:50 AM50 °FOvercast.10 mph62%29.92 "HgN/A
1:20 AM50 °FOvercast.10 mph62%29.92 "HgN/A
12:50 AM50 °FPassing clouds.7 mph62%29.92 "HgN/A
12:20 AM50 °FPassing clouds.8 mph58%29.92 "HgN/A
Weather by CustomWeather, © 2015

See weather overviewHow to use our weather pages